When you browse on this site, cookies collect data to enhance your experience and personalize the content and advertising you see.
Visit our Privacy Policy to learn more. By continuing to use the site, you agree to this use of cookies and data.

Hourly Weather Kipungo

Today, 7 August, Friday

Time Temperature Precipitation Wind Pressure Humidity
00:00 +13°C° 0 mm 1 mps 654 mmHg 24%
01:00 +12°C° 0 mm 1 mps 654 mmHg 22%
02:00 +10°C° 0 mm 0 mps 653 mmHg 23%
03:00 +10°C° 0 mm 0 mps 653 mmHg 24%
04:00 +9°C° 0 mm 0 mps 653 mmHg 24%
05:00 +10°C° 0 mm 0 mps 653 mmHg 24%
06:00 +10°C° 0 mm 0 mps 654 mmHg 24%
07:00 +11°C° 0 mm 0 mps 655 mmHg 23%
08:00 +18°C° 0 mm 1 mps 656 mmHg 19%
09:00 +21°C° 0 mm 2 mps 657 mmHg 15%
10:00 +27°C° 0 mm 2 mps 658 mmHg 12%
11:00 +29°C° 0 mm 2 mps 658 mmHg 10%
12:00 +32°C° 0 mm 2 mps 657 mmHg 8%
13:00 +34°C° 0 mm 1 mps 657 mmHg 6%
14:00 +34°C° 0 mm 1 mps 657 mmHg 6%
15:00 +33°C° 0 mm 1 mps 656 mmHg 6%
16:00 +33°C° 0 mm 1 mps 656 mmHg 6%
17:00 +29°C° 0 mm 1 mps 655 mmHg 7%
18:00 +26°C° 0 mm 1 mps 655 mmHg 9%
19:00 +22°C° 0 mm 1 mps 654 mmHg 11%
20:00 +20°C° 0 mm 1 mps 655 mmHg 20%
21:00 +18°C° 0 mm 2 mps 655 mmHg 28%
22:00 +16°C° 0 mm 2 mps 655 mmHg 37%
23:00 +15°C° 0 mm 2 mps 655 mmHg 49%

Tomorrow, 8 August, Saturday

Time Temperature Precipitation Wind Pressure Humidity
00:00 +14°C° 0 mm 2 mps 654 mmHg 60%
01:00 +13°C° 0 mm 1 mps 653 mmHg 72%
02:00 +12°C° 0 mm 1 mps 653 mmHg 73%
03:00 +12°C° 0 mm 1 mps 653 mmHg 75%
04:00 +11°C° 0 mm 1 mps 653 mmHg 76%
05:00 +11°C° 0 mm 1 mps 654 mmHg 73%
06:00 +12°C° 0 mm 1 mps 654 mmHg 70%
07:00 +11°C° 0 mm 0 mps 654 mmHg 66%
08:00 +16°C° 0 mm 1 mps 655 mmHg 50%
09:00 +22°C° 0 mm 1 mps 656 mmHg 34%
10:00 +27°C° 0 mm 2 mps 658 mmHg 18%
11:00 +29°C° 0 mm 2 mps 657 mmHg 15%
12:00 +31°C° 0 mm 2 mps 657 mmHg 12%
13:00 +35°C° 0 mm 2 mps 657 mmHg 9%
14:00 +35°C° 0 mm 2 mps 656 mmHg 9%
15:00 +34°C° 0 mm 1 mps 656 mmHg 8%
16:00 +34°C° 0 mm 1 mps 655 mmHg 8%
17:00 +30°C° 0 mm 1 mps 655 mmHg 11%
18:00 +26°C° 0 mm 1 mps 655 mmHg 14%
19:00 +23°C° 0 mm 1 mps 654 mmHg 17%
20:00 +20°C° 0 mm 2 mps 654 mmHg 28%
21:00 +18°C° 0 mm 2 mps 654 mmHg 39%
22:00 +16°C° 0 mm 2 mps 654 mmHg 50%
23:00 +15°C° 0 mm 2 mps 654 mmHg 53%

Day after tomorrow, 9 August, Sunday

Time Temperature Precipitation Wind Pressure Humidity
00:00 +14°C° 0 mm 1 mps 654 mmHg 55%
01:00 +14°C° 0 mm 1 mps 653 mmHg 58%
02:00 +13°C° 0 mm 1 mps 653 mmHg 58%
03:00 +13°C° 0 mm 1 mps 653 mmHg 59%
04:00 +12°C° 0 mm 1 mps 653 mmHg 59%
05:00 +12°C° 0 mm 1 mps 653 mmHg 57%
06:00 +13°C° 0 mm 1 mps 654 mmHg 54%
07:00 +13°C° 0 mm 1 mps 654 mmHg 52%
08:00 +17°C° 0 mm 2 mps 655 mmHg 39%
09:00 +23°C° 0 mm 2 mps 656 mmHg 27%
10:00 +27°C° 0 mm 3 mps 657 mmHg 14%
11:00 +29°C° 0 mm 3 mps 657 mmHg 13%
12:00 +31°C° 0 mm 3 mps 656 mmHg 12%
13:00 +34°C° 0 mm 3 mps 656 mmHg 11%
14:00 +34°C° 0 mm 2 mps 655 mmHg 11%
15:00 +35°C° 0 mm 2 mps 655 mmHg 10%
16:00 +34°C° 0 mm 1 mps 654 mmHg 10%
17:00 +30°C° 0 mm 1 mps 654 mmHg 13%
18:00 +27°C° 0 mm 1 mps 654 mmHg 16%
19:00 +23°C° 0 mm 1 mps 653 mmHg 19%
20:00 +22°C° 0 mm 1 mps 653 mmHg 24%
21:00 +19°C° 0 mm 2 mps 654 mmHg 29%
22:00 +17°C° 0 mm 2 mps 654 mmHg 34%
23:00 +16°C° 0 mm 2 mps 653 mmHg 42%

10 August, Monday

Time Temperature Precipitation Wind Pressure Humidity
00:00 +15°C° 0 mm 2 mps 653 mmHg 49%
01:00 +14°C° 0 mm 1 mps 652 mmHg 56%
02:00 +13°C° 0 mm 1 mps 652 mmHg 55%
03:00 +13°C° 0 mm 1 mps 652 mmHg 55%
04:00 +13°C° 0 mm 1 mps 652 mmHg 54%
05:00 +13°C° 0 mm 1 mps 653 mmHg 51%
06:00 +13°C° 0 mm 1 mps 653 mmHg 49%
07:00 +13°C° 0 mm 1 mps 653 mmHg 46%
08:00 +19°C° 0 mm 1 mps 655 mmHg 36%
09:00 +23°C° 0 mm 2 mps 656 mmHg 25%
10:00 +28°C° 0 mm 3 mps 657 mmHg 15%
11:00 +30°C° 0 mm 3 mps 656 mmHg 14%
12:00 +33°C° 0 mm 3 mps 655 mmHg 13%
13:00 +34°C° 0 mm 3 mps 655 mmHg 11%
14:00 +35°C° 0 mm 3 mps 654 mmHg 11%
15:00 +35°C° 0 mm 2 mps 654 mmHg 11%
16:00 +34°C° 0 mm 1 mps 654 mmHg 11%
17:00 +31°C° 0 mm 1 mps 654 mmHg 14%
18:00 +28°C° 0 mm 2 mps 654 mmHg 16%
19:00 +25°C° 0 mm 2 mps 653 mmHg 19%
20:00 +23°C° 0 mm 2 mps 653 mmHg 25%
21:00 +20°C° 0 mm 2 mps 653 mmHg 30%
22:00 +18°C° 0 mm 2 mps 653 mmHg 36%
23:00 +16°C° 0 mm 1 mps 653 mmHg 42%

11 August, Tuesday

Time Temperature Precipitation Wind Pressure Humidity
00:00 +15°C° 0 mm 1 mps 652 mmHg 47%
01:00 +13°C° 0 mm 0 mps 652 mmHg 53%
02:00 +14°C° 0 mm 1 mps 652 mmHg 55%
03:00 +13°C° 0 mm 1 mps 652 mmHg 56%
04:00 +13°C° 0 mm 1 mps 652 mmHg 57%
05:00 +13°C° 0 mm 1 mps 652 mmHg 55%
06:00 +13°C° 0 mm 1 mps 653 mmHg 52%
07:00 +13°C° 0 mm 2 mps 654 mmHg 50%
08:00 +18°C° 0 mm 2 mps 655 mmHg 38%
09:00 +23°C° 0 mm 2 mps 655 mmHg 26%
10:00 +28°C° 0 mm 2 mps 656 mmHg 14%
11:00 +30°C° 0 mm 3 mps 656 mmHg 13%
12:00 +33°C° 0 mm 3 mps 656 mmHg 11%
13:00 +35°C° 0 mm 3 mps 655 mmHg 10%
14:00 +35°C° 0 mm 2 mps 655 mmHg 10%
15:00 +35°C° 0 mm 2 mps 654 mmHg 10%
16:00 +34°C° 0 mm 1 mps 654 mmHg 10%
17:00 +31°C° 0 mm 1 mps 654 mmHg 12%
18:00 +28°C° 0 mm 1 mps 654 mmHg 15%
19:00 +25°C° 0 mm 2 mps 654 mmHg 18%
20:00 +23°C° 0 mm 2 mps 653 mmHg 22%
21:00 +20°C° 0 mm 2 mps 653 mmHg 27%
22:00 +18°C° 0 mm 2 mps 653 mmHg 32%
23:00 +18°C° 0 mm 1 mps 653 mmHg 37%

12 August, Wednesday

Time Temperature Precipitation Wind Pressure Humidity
00:00 +16°C° 0 mm 1 mps 653 mmHg 42%
01:00 +15°C° 0 mm 1 mps 652 mmHg 47%
02:00 +14°C° 0 mm 1 mps 652 mmHg 49%
03:00 +14°C° 0 mm 1 mps 652 mmHg 51%
04:00 +14°C° 0 mm 1 mps 652 mmHg 52%
05:00 +13°C° 0 mm 1 mps 653 mmHg 51%
06:00 +13°C° 0 mm 1 mps 653 mmHg 50%
07:00 +12°C° 0 mm 0 mps 654 mmHg 48%
08:00 +19°C° 0 mm 1 mps 655 mmHg 37%
09:00 +24°C° 0 mm 1 mps 656 mmHg 25%
10:00 +29°C° 0 mm 2 mps 657 mmHg 14%
11:00 +31°C° 0 mm 2 mps 656 mmHg 12%
12:00 +34°C° 0 mm 3 mps 656 mmHg 10%
13:00 +35°C° 0 mm 3 mps 655 mmHg 9%
14:00 +36°C° 0 mm 3 mps 655 mmHg 8%
15:00 +36°C° 0 mm 2 mps 655 mmHg 8%
16:00 +35°C° 0 mm 1 mps 654 mmHg 8%
17:00 +32°C° 0 mm 1 mps 654 mmHg 10%
18:00 +28°C° 0 mm 2 mps 654 mmHg 13%
19:00 +24°C° 0 mm 2 mps 654 mmHg 15%
20:00 +21°C° 0 mm 2 mps 654 mmHg 22%
21:00 +20°C° 0 mm 2 mps 654 mmHg 28%
22:00 +18°C° 0 mm 2 mps 654 mmHg 35%
23:00 +16°C° 0 mm 1 mps 653 mmHg 42%
Show more